• In Netherlands
  • List of Countries
  • For 7 days
  • Water Temperature
  • Satellite Maps
  • Weather Map
  • Weather Widgets
  • user-avatar
    Login

    Hourly Weather Punta Gorda

    Today, 24 March, Friday

    Time Temperature Precipitation Wind Pressure Humidity
    00:00 +19°C° 0 mm 2 mps 764 mmHg 87%
    01:00 +19°C° 0 mm 2 mps 763 mmHg 87%
    02:00 +20°C° 0 mm 1 mps 763 mmHg 88%
    03:00 +20°C° 0 mm 1 mps 763 mmHg 88%
    04:00 +20°C° 0 mm 1 mps 763 mmHg 88%
    05:00 +20°C° 0 mm 1 mps 763 mmHg 87%
    06:00 +20°C° 0 mm 1 mps 763 mmHg 87%
    07:00 +23°C° 0 mm 1 mps 763 mmHg 77%
    08:00 +26°C° 0 mm 1 mps 763 mmHg 67%
    09:00 +28°C° 0 mm 1 mps 764 mmHg 57%
    10:00 +29°C° 0 mm 1 mps 763 mmHg 52%
    11:00 +31°C° 0 mm 2 mps 763 mmHg 47%
    12:00 +32°C° 0 mm 2 mps 762 mmHg 42%
    13:00 +33°C° 0 mm 3 mps 761 mmHg 43%
    14:00 +33°C° 0 mm 3 mps 761 mmHg 45%
    15:00 +33°C° 0 mm 4 mps 760 mmHg 46%
    16:00 +30°C° 0 mm 3 mps 760 mmHg 54%
    17:00 +28°C° 0 mm 3 mps 760 mmHg 62%
    18:00 +27°C° 0 mm 3 mps 760 mmHg 71%
    19:00 +25°C° 0 mm 3 mps 761 mmHg 77%
    20:00 +24°C° 0 mm 2 mps 761 mmHg 83%
    21:00 +23°C° 0 mm 2 mps 762 mmHg 89%
    22:00 +23°C° 0 mm 2 mps 762 mmHg 90%
    23:00 +23°C° 0 mm 2 mps 762 mmHg 91%

    Tomorrow, 25 March, Saturday

    Time Temperature Precipitation Wind Pressure Humidity
    00:00 +23°C° 0 mm 2 mps 762 mmHg 92%
    01:00 +23°C° 0.1 mm 2 mps 762 mmHg 92%
    02:00 +23°C° 0.1 mm 1 mps 761 mmHg 93%
    03:00 +23°C° 0.1 mm 1 mps 761 mmHg 94%
    04:00 +22°C° 0.1 mm 1 mps 761 mmHg 94%
    05:00 +22°C° 0.1 mm 1 mps 761 mmHg 94%
    06:00 +20°C° 0.1 mm 0 mps 762 mmHg 95%
    07:00 +24°C° 0 mm 1 mps 762 mmHg 86%
    08:00 +26°C° 0 mm 1 mps 762 mmHg 78%
    09:00 +28°C° 0 mm 1 mps 763 mmHg 70%
    10:00 +29°C° 0.1 mm 1 mps 762 mmHg 65%
    11:00 +30°C° 0.1 mm 2 mps 762 mmHg 59%
    12:00 +32°C° 0.1 mm 2 mps 761 mmHg 53%
    13:00 +33°C° 0 mm 3 mps 760 mmHg 54%
    14:00 +31°C° 0 mm 3 mps 759 mmHg 54%
    15:00 +31°C° 0 mm 3 mps 758 mmHg 55%
    16:00 +30°C° 0 mm 3 mps 758 mmHg 60%
    17:00 +29°C° 0 mm 3 mps 759 mmHg 66%
    18:00 +27°C° 0 mm 3 mps 759 mmHg 72%
    19:00 +26°C° 0 mm 3 mps 760 mmHg 77%
    20:00 +25°C° 0 mm 2 mps 760 mmHg 83%
    21:00 +23°C° 0 mm 2 mps 761 mmHg 88%
    22:00 +23°C° 0 mm 2 mps 761 mmHg 90%
    23:00 +21°C° 0 mm 2 mps 761 mmHg 93%

    Day after tomorrow, 26 March, Sunday

    Time Temperature Precipitation Wind Pressure Humidity
    00:00 +21°C° 0 mm 1 mps 761 mmHg 95%
    01:00 +21°C° 0 mm 1 mps 760 mmHg 95%
    02:00 +21°C° 0 mm 1 mps 760 mmHg 94%
    03:00 +21°C° 0 mm 1 mps 759 mmHg 93%
    04:00 +21°C° 0 mm 1 mps 759 mmHg 94%
    05:00 +21°C° 0 mm 1 mps 760 mmHg 94%
    06:00 +21°C° 0 mm 1 mps 760 mmHg 94%
    07:00 +24°C° 0 mm 1 mps 760 mmHg 82%
    08:00 +26°C° 0 mm 1 mps 761 mmHg 70%
    09:00 +29°C° 0 mm 1 mps 761 mmHg 58%
    10:00 +30°C° 0 mm 1 mps 760 mmHg 53%
    11:00 +32°C° 0 mm 2 mps 760 mmHg 48%
    12:00 +34°C° 0 mm 2 mps 759 mmHg 43%
    13:00 +34°C° 0 mm 2 mps 759 mmHg 42%
    14:00 +34°C° 0 mm 3 mps 758 mmHg 42%
    15:00 +34°C° 0 mm 3 mps 757 mmHg 41%
    16:00 +31°C° 0 mm 3 mps 757 mmHg 50%
    17:00 +29°C° 0 mm 3 mps 757 mmHg 59%
    18:00 +27°C° 0 mm 3 mps 757 mmHg 68%
    19:00 +26°C° 0 mm 3 mps 758 mmHg 75%
    20:00 +24°C° 0 mm 3 mps 759 mmHg 83%
    21:00 +23°C° 0 mm 2 mps 759 mmHg 90%
    22:00 +21°C° 0 mm 2 mps 759 mmHg 92%
    23:00 +21°C° 0 mm 2 mps 759 mmHg 93%

    27 March, Monday

    Time Temperature Precipitation Wind Pressure Humidity
    00:00 +21°C° 0 mm 2 mps 759 mmHg 94%
    01:00 +22°C° 0 mm 1 mps 759 mmHg 94%
    02:00 +22°C° 0 mm 1 mps 758 mmHg 94%
    03:00 +22°C° 0 mm 1 mps 758 mmHg 94%
    04:00 +22°C° 0 mm 1 mps 758 mmHg 95%
    05:00 +22°C° 0 mm 1 mps 758 mmHg 95%
    06:00 +22°C° 0 mm 1 mps 758 mmHg 96%
    07:00 +24°C° 0 mm 1 mps 759 mmHg 85%
    08:00 +27°C° 0 mm 1 mps 759 mmHg 75%
    09:00 +29°C° 0 mm 1 mps 759 mmHg 65%
    10:00 +31°C° 0 mm 1 mps 758 mmHg 58%
    11:00 +32°C° 0 mm 2 mps 758 mmHg 50%
    12:00 +35°C° 0 mm 2 mps 757 mmHg 43%
    13:00 +35°C° 0 mm 3 mps 756 mmHg 42%
    14:00 +35°C° 0 mm 3 mps 755 mmHg 41%
    15:00 +35°C° 0 mm 3 mps 754 mmHg 40%
    16:00 +33°C° 0 mm 3 mps 755 mmHg 49%
    17:00 +30°C° 0 mm 3 mps 755 mmHg 58%
    18:00 +28°C° 0 mm 3 mps 755 mmHg 66%
    19:00 +27°C° 0 mm 3 mps 756 mmHg 74%
    20:00 +25°C° 0 mm 3 mps 757 mmHg 81%
    21:00 +24°C° 0 mm 2 mps 758 mmHg 89%
    22:00 +24°C° 0 mm 2 mps 758 mmHg 90%
    23:00 +24°C° 0 mm 2 mps 758 mmHg 91%

    28 March, Tuesday

    Time Temperature Precipitation Wind Pressure Humidity
    00:00 +23°C° 0 mm 2 mps 758 mmHg 92%
    01:00 +24°C° 0 mm 2 mps 757 mmHg 93%
    02:00 +24°C° 0 mm 1 mps 757 mmHg 93%
    03:00 +24°C° 0 mm 1 mps 757 mmHg 93%
    04:00 +24°C° 0 mm 1 mps 757 mmHg 94%
    05:00 +24°C° 0 mm 1 mps 758 mmHg 94%
    06:00 +24°C° 0 mm 1 mps 758 mmHg 94%
    07:00 +26°C° 0 mm 1 mps 758 mmHg 87%
    08:00 +28°C° 0 mm 1 mps 759 mmHg 80%
    09:00 +29°C° 0 mm 1 mps 759 mmHg 73%
    10:00 +31°C° 0 mm 1 mps 759 mmHg 65%
    11:00 +34°C° 0 mm 2 mps 758 mmHg 57%
    12:00 +36°C° 0 mm 2 mps 757 mmHg 48%
    13:00 +36°C° 0 mm 2 mps 757 mmHg 48%
    14:00 +36°C° 0 mm 3 mps 756 mmHg 48%
    15:00 +36°C° 0 mm 3 mps 755 mmHg 47%
    16:00 +34°C° 0 mm 3 mps 756 mmHg 56%
    17:00 +31°C° 0 mm 3 mps 756 mmHg 64%
    18:00 +29°C° 0 mm 3 mps 757 mmHg 72%
    19:00 +28°C° 0.1 mm 3 mps 757 mmHg 78%
    20:00 +27°C° 0.1 mm 3 mps 758 mmHg 84%
    21:00 +26°C° 0.1 mm 3 mps 759 mmHg 90%
    22:00 +26°C° 0 mm 2 mps 759 mmHg 91%
    23:00 +25°C° 0 mm 2 mps 759 mmHg 92%

    29 March, Wednesday

    Time Temperature Precipitation Wind Pressure Humidity
    00:00 +25°C° 0 mm 2 mps 758 mmHg 93%
    01:00 +25°C° 0 mm 2 mps 758 mmHg 93%
    02:00 +25°C° 0 mm 2 mps 758 mmHg 94%
    03:00 +25°C° 0 mm 1 mps 758 mmHg 94%
    04:00 +25°C° 0 mm 1 mps 758 mmHg 94%
    05:00 +25°C° 0 mm 1 mps 759 mmHg 94%
    06:00 +25°C° 0 mm 1 mps 759 mmHg 94%
    07:00 +26°C° 0.1 mm 1 mps 759 mmHg 89%
    08:00 +28°C° 0.1 mm 1 mps 760 mmHg 85%
    09:00 +29°C° 0.1 mm 1 mps 760 mmHg 80%
    10:00 +31°C° 0.1 mm 1 mps 759 mmHg 70%
    11:00 +34°C° 0.1 mm 2 mps 759 mmHg 61%
    12:00 +35°C° 0.1 mm 2 mps 758 mmHg 51%
    13:00 +36°C° 0 mm 3 mps 757 mmHg 50%
    14:00 +36°C° 0 mm 3 mps 756 mmHg 50%
    15:00 +36°C° 0 mm 3 mps 755 mmHg 49%
    16:00 +34°C° 0 mm 3 mps 756 mmHg 56%
    17:00 +31°C° 0 mm 3 mps 756 mmHg 64%
    18:00 +30°C° 0 mm 4 mps 756 mmHg 72%
    19:00 +28°C° 0 mm 3 mps 757 mmHg 78%
    20:00 +27°C° 0 mm 3 mps 758 mmHg 85%
    21:00 +26°C° 0 mm 3 mps 758 mmHg 91%
    22:00 +26°C° 0 mm 3 mps 758 mmHg 91%
    23:00 +26°C° 0 mm 2 mps 758 mmHg 90%
    Show more